Main page
METAR-TAF:

METAR-TAF

Airports :

Liberal Mid-America Regional Airport

Liberal, Kansas, United States

latitude: 37-03N, longitude: 100-58W, elevation: 2883 ft

Current weather observation

The report was made 56 minutes ago, at 00:56 UTC
Wind 12 mph from the South/Southwest
Temperature 79°F
Humidity 20%
Pressure 29.82 in. Hg
Visibility: 10 miles
Clear sky

METAR: KLBL 140056Z AUTO 21010KT 10SM CLR 26/01 A2982 RMK AO2 SLP075 T02610006

Time: 20:52 (01:52 UTC)


TAF: missing

Weather observations and forecasts of more than 4000 airports (METAR and TAF reports).

The available stations are represented by yellow and red dots on the map.

Hover mouse over dot to see the name of the station.

Then click to see weather observations and forecasts.

To change the map : click on the green buttons with a black cross to zoom in, on the green button with a dash to zoom out, or on the green arrows for adjacent maps.


METAR-TAF: